Weather History for KMIW - November, 2011

Change the Weather History Date:

Sunday, November 13, 2011

  Actual Average Record
Temperature  
Mean Temperature 49 °F 38 °F  
Max Temperature 58 °F 48 °F 79 °F (1999)
Min Temperature 40 °F 28 °F 14 °F (1996)
Degree Days  
Heating Degree Days 16 27  
Month to date heating degree days 291 315  
Since 1 July heating degree days 860 948  
Cooling Degree Days 0 0  
Month to date cooling degree days 0 0  
Year to date cooling degree days 896 728  
Moisture  
Dew Point 37 °F    
Average Humidity 64    
Maximum Humidity 82    
Minimum Humidity 46    
Precipitation  
Precipitation 0.00 in 0.08 in 0.22 in (2006)
Month to date precipitation 1.79 1.32  
Year to date precipitation 24.62  
Sea Level Pressure  
Sea Level Pressure 29.41 in    
Wind  
Wind Speed 12 mph (SW)    
Max Wind Speed 31 mph    
Max Gust Speed 36 mph    
Visibility 10 miles    
Events      
T = Trace of Precipitation, MM = Missing Value Source: NWS Daily Summary

Daily Weather History Graph

Daily Weather History Graph

Search for Another Location

Airport or City:

Trip Planner

Search our weather history database for the weather conditions in past years. The results will help you decide how hot, cold, wet, or windy it might be!

Date:

Astronomy

Nov. 13, 2011 Rise Set
Actual Time 6:59 AM CST 4:52 PM CST
Civil Twilight 6:29 AM CST 5:22 PM CST
Nautical Twilight 5:55 AM CST 5:55 PM CST
Astronomical Twilight 5:22 AM CST 6:28 PM CST
Moon 6:59 PM CST (11/13) 9:34 AM CST (11/13)
Length of Visible Light 10h 53m
Length of Day
9h 53m
Waning Gibbous, 92% of the Moon is Illuminated
Nov 13
Waning Gibbous
Nov 18
Last Quarter
Nov 25
New
Dec 2
First Quarter
Dec 10
Full

Hourly Weather History & Observations

Time (CST) Temp. Windchill Dew Point Humidity Pressure Visibility Wind Dir Wind Speed Gust Speed Precip Events Conditions
12:53 AM 46.9 °F - 37.0 °F 68% 29.34 in 10.0 mi SSW 11.5 mph - N/A   Clear
1:53 AM 46.0 °F 40.2 °F 37.0 °F 71% 29.34 in 10.0 mi SSW 12.7 mph - N/A   Clear
2:53 AM 46.9 °F - 37.0 °F 68% 29.33 in 10.0 mi SSW 13.8 mph - N/A   Clear
3:53 AM 44.1 °F 38.6 °F 37.0 °F 76% 29.30 in 10.0 mi South 10.4 mph - N/A   Clear
4:53 AM 44.1 °F 41.5 °F 37.9 °F 79% 29.32 in 10.0 mi SW 4.6 mph - N/A   Scattered Clouds
6:53 AM 43.0 °F 39.5 °F 37.9 °F 82% 29.24 in 10.0 mi ESE 5.8 mph - N/A   Clear
7:53 AM 46.0 °F 41.9 °F 41.0 °F 83% 29.25 in 10.0 mi South 8.1 mph - N/A   Clear
8:53 AM 50.0 °F - 42.1 °F 74% 29.22 in 10.0 mi SSW 9.2 mph - N/A   Clear
9:53 AM 52.0 °F - 42.1 °F 69% 29.28 in 10.0 mi WSW 20.7 mph 28.8 mph N/A   Clear
10:53 AM 52.0 °F - 39.9 °F 63% 29.31 in 10.0 mi WSW 21.9 mph 29.9 mph N/A   Clear
11:53 AM 57.0 °F - 41.0 °F 55% 29.31 in 10.0 mi West 16.1 mph - N/A   Clear
12:53 PM 54.0 °F - 39.0 °F 57% 29.34 in 10.0 mi WSW 19.6 mph 28.8 mph N/A   Clear
1:53 PM 54.0 °F - 37.9 °F 55% 29.38 in 10.0 mi West 19.6 mph - N/A   Mostly Cloudy
2:53 PM 53.1 °F - 33.1 °F 47% 29.41 in 10.0 mi West 18.4 mph 26.5 mph N/A   Clear
3:53 PM 52.0 °F - 34.0 °F 50% 29.44 in 10.0 mi West 12.7 mph - N/A   Clear
4:53 PM 48.9 °F - 35.1 °F 59% 29.48 in 10.0 mi WSW 11.5 mph - N/A   Clear
5:53 PM 46.9 °F - 35.1 °F 63% 29.53 in 10.0 mi SW 13.8 mph - N/A   Clear
6:53 PM 44.1 °F 37.7 °F 35.1 °F 71% 29.55 in 10.0 mi WSW 12.7 mph - N/A   Clear
7:53 PM 41.0 °F 35.2 °F 34.0 °F 76% 29.57 in 10.0 mi WSW 9.2 mph - N/A   Clear
8:53 PM 41.0 °F 34.7 °F 34.0 °F 76% 29.60 in 10.0 mi SW 10.4 mph - N/A   Clear
9:53 PM 39.9 °F 35.8 °F 34.0 °F 79% 29.61 in 10.0 mi WSW 5.8 mph - N/A   Clear
10:53 PM 39.9 °F 35.8 °F 34.0 °F 79% 29.61 in 10.0 mi WSW 5.8 mph - N/A   Clear
11:53 PM 42.1 °F 40.2 °F 34.0 °F 73% 29.60 in 10.0 mi SSW 3.5 mph - N/A   Mostly Cloudy